Preview of NWS' New Version of Forecast
This preview is not operational and should not be used for support decisions.

Regional Weather Roundup (RWR)

Issued by National Weather Service (NWS)

                            
000
ASUS44 KJAN 192210
RWRMS 

MISSISSIPPI HOURLY WEATHER ROUNDUP
NATIONAL WEATHER SERVICE JACKSON MS
500 PM CDT THU SEP 19 2019

NOTE: "FAIR: INDICATES FEW OR NO CLOUDS BELOW 12,000 FEET WITH NO
SIGNIFICANT WEATHER AND/OR OBSTRUCTIONS TO VISIBILITY.

MSZ001>002-007>008-010>013-018>021-025>028-034>036-192300-
NORTHWEST MISSISSIPPI
  
CITY           SKY/WX    TMP DP  RH WIND       PRES   REMARKS
BATESVILLE     FAIR      88  72  58 VRB7G15   29.98R HX  94           
CLARKSDALE       N/A     91  73  55 SE10      29.96R HX 100           
CLEVELAND      FAIR      82  72  71 N6        29.95S                  
GREENWOOD      FAIR      92  72  51 SE13      29.95S HX  99           
GREENVILLE     FAIR      95  69  42 NW3       29.92F HX 100           
OLIVE BRANCH   PTSUNNY   79  68  69 SE7       29.99F                  
OXFORD         FAIR      86  70  58 SE7G18    30.02S HX  90           
TUNICA           N/A     88  72  58 SE10      29.96S HX  94           
WINONA         FAIR      86  72  64 E7        29.99F HX  92           
$$

MSZ003>006-009-014>017-022>024-029>033-037>039-192300-
NORTHEAST MISSISSIPPI
  
CITY           SKY/WX    TMP DP  RH WIND       PRES   REMARKS
ABERDEEN       CLOUDY    84  66  54 SE8       30.04F                  
COLUMBUS AFB   FAIR      86  71  61 SE9       30.02F HX  92           
CORINTH        MOCLDY    84  68  58 MISG      30.04S                  
GOLDN TRIANGLE PTSUNNY   86  72  62 SE13      30.03F HX  92           
STARKVILLE     CLOUDY    84  70  61 E7        30.04S                  
TUPELO         NOT AVBL                                               
$$

MSZ040-058-192300-
CENTRAL MISSISSIPPI
  
CITY           SKY/WX    TMP DP  RH WIND       PRES   REMARKS
JACKSON INTL   PTSUNNY   81  70  69 N10       30.00R THUNDER          
JACKSON HAWKNS FAIR      80  71  74 NE13      29.99R                  
MADISON        CLOUDY    72  72 100 NE10G25   30.02R THUNDER          
MERIDIAN KEY   FAIR      88  73  61 SE7       30.02S HX  95           
MERIDIAN NAS   PTSUNNY   88  70  55 SE12      30.02F HX  93           
RAYMOND          N/A     90  73  58 MISG      29.96S HX  98           
VICKSBURG VKS  PTCLDY    93  66  40 SW8       29.94F HX  96           
$$

MSZ059>079-192300-
SOUTH MISSISSIPPI
  
CITY           SKY/WX    TMP DP  RH WIND       PRES   REMARKS
HATTIESBURG    FAIR      80  70  71 E6        30.02S                  
LAUREL         CLOUDY    77  70  79 SE8       30.03R                  
MCCOMB         FAIR      88  69  53 S8        29.98R HX  92           
NATCHEZ        NOT AVBL                                               
PINE BELT      LGT RAIN  73  72  96 N3        30.02                   
$$

MSZ080>082-192300-
COASTAL MISSISSIPPI
  
CITY           SKY/WX    TMP DP  RH WIND       PRES   REMARKS
BILOXI         TSTM      76  71  83 SE15      30.01S                  
PASCAGOULA     NOT AVBL                                               
GULFPORT       NOT AVBL                                               
$$

LAZ007>009-015>016-023>026-192300-
NORTHEAST LOUISIANA
  
CITY           SKY/WX    TMP DP  RH WIND       PRES   REMARKS
BASTROP        FAIR      86  68  55 SW13      29.97S                  
TALLULAH/VBURG FAIR      93  67  42 S7        29.94F HX  96           
VIDALIA        FAIR      87  72  60 SW8       29.97S HX  94           
$$